Location: Campolattaro
(41.2833°N, 14.7333°E)
Time: 20:40:32
(UTC+00:00)

USA 229 - Pass Details

Date: 19 May 2025
Orbit: 872 x 1339 km, 63.4° (Epoch: 10 June)

Event Time Altitude Azimuth Distance (km) Brightness Sun altitude
Exits shadow 23:20:52 36° 269° (W) 1,471 4.3 -28.5°
Maximum altitude 23:22:49 46° 313° (NW) 1,277 4.2 -28.5°
Drops below altitude 10° 23:29:13 10° 27° (NNE) 2,871 6.8 -28.3°
Sets 23:32:09 0° 33° (NNE) 3,904 7.6 -28.2°
